Location: Владивосток
(43.1151°N, 131.8856°E)
Time: 02:27:46
(UTC+10:00)

FO-29 - Pass Details

Date: 02 May 2024
Orbit: 801 x 1320 km, 98.6° (Epoch: 19 May)

Event Time Altitude Azimuth Distance (km) Brightness Sun altitude
Rises 04:43:11 0° 4° (N) 4,275 13.5 -13.8°
Reaches altitude 10° 04:46:23 10° 353° (N) 3,335 12.7 -13.3°
Maximum altitude 04:52:25 26° 302° (WNW) 2,375 11.3 -12.4°
Enters shadow 04:57:47 12° 254° (WSW) 3,148 11.6 -11.6°
